This demonstration page uses our WeatherBlox Daily Observations layout. Learn more.

Left ArrowRight Arrow

Hourly Observations for December 4, 2019

Temp ( °F °C ) Dew Point ( °F °C ) Humidity (%) Winds ( mph kmh ) Pressure ( in mb ) Visibility ( mi km ) Precip ( " mm )
12:56 am 00:56 Clear 36 2.2 28 -2.2 73 73 W 8 13 30.00 1016 10 16 0.00 0.00
1:56 am 01:56 Clear 35 1.7 27 -2.8 72 72 W 9 15 30.00 1016 10 16 0.00 0.00
2:56 am 02:56 Clear 35 1.7 28 -2.2 76 76 WNW 13 20 30.00 1016 10 16 0.00 0.00
3:56 am 03:56 Clear 35 1.7 29 -1.7 78 78 WNW 9 15 30.00 1016 10 16 0.00 0.00
4:56 am 04:56 Clear 34 1.1 29 -1.7 82 82 WNW 9 15 30.00 1016 10 16 0.00 0.00
5:56 am 05:56 Clear 33 0.6 28 -2.2 82 82 WNW 10 17 29.99 1016 10 16 0.00 0.00
6:56 am 06:56 Clear 33 0.6 27 -2.8 78 78 WNW 10 17 30.01 1016 10 16 0.00 0.00
7:56 am 07:56 Sunny 32 0 27 -2.8 82 82 WNW 8 13 30.03 1017 10 16 0.00 0.00
8:56 am 08:56 Sunny 36 2.2 27 -2.8 70 70 Calm 30.04 1017 10 16 0.00 0.00
9:56 am 09:56 Sunny 40 4.4 29 -1.7 65 65 WNW 7 11 30.04 1017 10 16 0.00 0.00
10:56 am 10:56 Sunny 43 6.1 30 -1.1 60 60 NW 8 13 30.04 1017 10 16 0.00 0.00
11:56 am 11:56 Sunny 45 7.2 31 -0.6 58 58 NW 7 11 30.01 1016 10 16 0.00 0.00
12:56 pm 12:56 Sunny 47 8.3 32 0 56 56 NW 7 11 29.99 1016 10 16 0.00 0.00
1:56 pm 13:56 Sunny 51 10.6 32 0 48 48 WNW 3 6 29.98 1015 10 16 0.00 0.00
2:56 pm 14:56 Sunny 50 10 34 1.1 54 54 NE 5 7 29.96 1015 10 16 0.00 0.00
3:56 pm 15:56 Sunny 46 7.8 36 2.2 68 68 SW 6 9 29.97 1015 10 16 0.00 0.00
4:56 pm 16:56 Sunny 44 6.7 36 2.2 73 73 Calm 29.97 1015 10 16 0.00 0.00
5:56 pm 17:56 Clear 38 3.3 32 0 79 79 SW 5 7 29.97 1015 10 16 0.00 0.00
6:56 pm 18:56 Clear 38 3.3 33 0.6 83 83 Calm 29.97 1015 10 16 0.00 0.00
7:56 pm 19:56 Clear 35 1.7 32 0 89 89 Calm 29.97 1015 10 16 0.00 0.00
8:56 pm 20:56 Clear 31 -0.6 29 -1.7 92 92 SE 5 7 29.96 1015 10 16 0.00 0.00
9:56 pm 21:56 Clear 30 -1.1 29 -1.7 96 96 Calm 29.97 1015 10 16 0.00 0.00
10:56 pm 22:56 Clear 29 -1.7 28 -2.2 96 96 SSE 5 7 29.96 1015 10 16 0.00 0.00
11:56 pm 23:56 Clear 30 -1.1 28 -2.2 92 92 SSW 3 6 29.95 1014 10 16 0.00 0.00

Powered by AerisWeather